changsha , China , ASIA

  • Wednesday
    September 26

      Light rain

      64 °F

      No wind

       

  • Thursday
    September 27

    Overcast  Cloudy

    72 °F  66 °F

    No wind  No wind

        

  • Friday
    September 28

    Cloudy  Sunny

    81 °F  66 °F

    No wind  North

        

  • Saturday
    September 29

    Sunny  Sunny

    82 °F  64 °F

    North  North

        

  • Sunday
    September 30

    Sunny  Sunny

    82 °F  64 °F

    North  North

        

  • Monday
    October 1

    Sunny  Cloudy

    86 °F  66 °F

    North  North

        

  • Tuesday
    October 2

    Cloudy  Cloudy

    86 °F  68 °F

    North  North

        

Date   Weather Temperature Humidity Total_rain Visibility Wind
23:00 Light rain 65°F 91.4% 0.6mm 999.9km Northeast  2.3m/s
02:00 Light rain 66°F 92.8% 1.3mm 999.9km Northeast  2.3m/s
05:00 Light rain 65°F 93.9% 1.3mm 999.9km Northeast  2.1m/s
08:00 Light rain 66°F 94.4% 0.5mm 999.9km Northeast  2.1m/s
11:00 Overcast 68°F 86.2% 0mm 999.9km Northeast  2.6m/s
14:00 Overcast 71°F 83.4% 0mm 999.9km Northeast  2.9m/s
17:00 Overcast 70°F 83.4% 0mm 999.9km Northeast  3.0m/s
20:00 Overcast 68°F 80.3% 0mm 999.9km Northeast  2.8m/s
23:00 Cloudy 75°F 87.4% 0mm 999.9km Northeast  2.9m/s
02:00 Cloudy 68°F 90.6% 0mm 999.9km Northeast  2.8m/s
05:00 Cloudy 67°F 92.8% 0mm 999.9km Northwest  3.8m/s
08:00 Cloudy 67°F 92.1% 0mm 999.9km Northwest  2.7m/s
11:00 Cloudy 80°F 79.4% 0mm 999.9km Northwest  3.4m/s
14:00 Cloudy 78°F 77% 0mm 999.9km Northeast  3.5m/s
17:00 Cloudy 76°F 78.7% 0mm 999.9km Northeast  4.7m/s
20:00 Cloudy 75°F 73.4% 0mm 999.9km Northeast  3.0m/s
23:00 Sunny 70°F 82.2% 0mm 999.9km Northwest  2.2m/s
02:00 Sunny 69°F 87.5% 0mm 999.9km Northeast  3.1m/s
05:00 Sunny 67°F 90.5% 0mm 999.9km Northeast  2.7m/s
08:00 Sunny 69°F 85% 0mm 999.9km Northwest  2.8m/s
11:00 Sunny 78°F 63.3% 0mm 999.9km Northeast  2.9m/s
14:00 Sunny 82°F 56.9% 0mm 999.9km Northeast  3.5m/s
17:00 Sunny 80°F 60.9% 0mm 999.9km Northwest  2.5m/s
20:00 Sunny 79°F 52.7% 0mm 999.9km Northeast  2.4m/s
23:00 Sunny 71°F 88.3% 0mm 999.9km Northeast  2.0m/s
02:00 Sunny 67°F 89.1% 0mm 999.9km Northeast  2.2m/s
05:00 Sunny 65°F 90.9% 0mm 999.9km Northeast  1.4m/s
08:00 Sunny 69°F 89.6% 0mm 999.9km Northeast  1.0m/s
11:00 Sunny 76°F 66.7% 0mm 999.9km Northeast  2.8m/s
14:00 Sunny 82°F 59.1% 0mm 999.9km Northeast  3.3m/s
17:00 Sunny 77°F 61.7% 0mm 999.9km Northeast  2.7m/s
20:00 Sunny 74°F 56% 0mm 999.9km Northeast  3.1m/s
23:00 Sunny 72°F 83.5% 0mm 999.9km Northeast  2.2m/s
02:00 Sunny 69°F 86.4% 0mm 999.9km Northeast  2.2m/s
05:00 Sunny 65°F 87.8% 0mm 999.9km Northeast  2.2m/s
08:00 Sunny 69°F 85.8% 0mm 999.9km Northeast  2.4m/s
11:00 Sunny 85°F 59.9% 0mm 999.9km Northwest  1.3m/s
14:00 Sunny 86°F 52.1% 0mm 999.9km Northeast  4.0m/s
17:00 Sunny 84°F 55.7% 0mm 999.9km Northwest  2.5m/s
20:00 Sunny 78°F 51.4% 0mm 999.9km Northeast  2.3m/s
23:00 Cloudy 74°F 75% 0mm 999.9km Northwest  1.4m/s
02:00 Cloudy 70°F 91.8% 0mm 999.9km Northeast  1.4m/s
05:00 Cloudy 67°F 80.8% 0mm 999.9km Northeast  1.5m/s
08:00 Cloudy 70°F 71.7% 0mm 999.9km Northeast  1.4m/s
11:00 Cloudy 79°F 57.9% 0mm 999.9km Northeast  1.3m/s
14:00 Cloudy 86°F 57.3% 0mm 999.9km Northeast  2.1m/s
17:00 Cloudy 81°F 56.6% 0mm 999.9km Northeast  2.5m/s
20:00 Cloudy 76°F 52.1% 0mm 999.9km Northeast  2.0m/s
23:00 Cloudy 72°F 77.5% 0mm 999.9km Northeast  1.4m/s
02:00 Cloudy 68°F 91.2% 0mm 999.9km Northeast  1.8m/s
05:00 Cloudy 69°F 82.6% 0mm 999.9km Northeast  2.0m/s
440| 483| 181| 447| 940| 76| 344| 800| 47| 458|